Year,Month,Day,Hour,Minute,Value (Times are PST for temperature in C)
2006,09,22,00,00,9.60
2006,09,22,00,01,9.60
2006,09,22,00,02,9.60
2006,09,22,00,03,9.60
2006,09,22,00,04,9.60
2006,09,22,00,05,9.60
2006,09,22,00,06,9.60
2006,09,22,00,07,9.50
2006,09,22,00,08,9.50
2006,09,22,00,09,9.50
2006,09,22,00,10,9.50
2006,09,22,00,11,9.50
2006,09,22,00,12,9.50
2006,09,22,00,13,9.50
2006,09,22,00,14,9.40
2006,09,22,00,15,9.40
2006,09,22,00,16,9.40
2006,09,22,00,17,9.40
2006,09,22,00,18,9.40
2006,09,22,00,19,9.30
2006,09,22,00,20,9.30
2006,09,22,00,21,9.30
2006,09,22,00,22,9.30
2006,09,22,00,23,9.20
2006,09,22,00,24,9.20
2006,09,22,00,25,9.20
2006,09,22,00,26,9.20
2006,09,22,00,27,9.20
2006,09,22,00,28,9.20
2006,09,22,00,29,9.20
2006,09,22,00,30,9.20
2006,09,22,00,31,9.20
2006,09,22,00,32,9.20
2006,09,22,00,33,9.20
2006,09,22,00,34,9.20
2006,09,22,00,35,9.10
2006,09,22,00,36,9.10
2006,09,22,00,37,9.10
2006,09,22,00,38,9.10
2006,09,22,00,39,9.10
2006,09,22,00,40,9.10
2006,09,22,00,41,9.00
2006,09,22,00,42,9.00
2006,09,22,00,43,9.00
2006,09,22,00,44,9.00
2006,09,22,00,45,9.00
2006,09,22,00,46,9.00
2006,09,22,00,47,9.00
2006,09,22,00,48,9.00
2006,09,22,00,49,9.00
2006,09,22,00,50,9.00
2006,09,22,00,51,9.00
2006,09,22,00,52,8.90
2006,09,22,00,53,8.90
2006,09,22,00,54,8.90
2006,09,22,00,55,8.90
2006,09,22,00,56,8.90
2006,09,22,00,57,8.90
2006,09,22,00,58,8.90
2006,09,22,00,59,8.80
2006,09,22,01,00,8.80
2006,09,22,01,01,8.80
2006,09,22,01,02,8.80
2006,09,22,01,03,8.80
2006,09,22,01,04,8.80
2006,09,22,01,05,8.80
2006,09,22,01,06,8.80
2006,09,22,01,07,8.90
2006,09,22,01,08,8.90
2006,09,22,01,09,8.90
2006,09,22,01,10,8.90
2006,09,22,01,11,8.90
2006,09,22,01,12,8.80
2006,09,22,01,13,8.80
2006,09,22,01,14,8.80
2006,09,22,01,15,8.80
2006,09,22,01,16,8.80
2006,09,22,01,17,8.80
2006,09,22,01,18,8.80
2006,09,22,01,19,8.70
2006,09,22,01,20,8.70
2006,09,22,01,21,8.70
2006,09,22,01,22,8.70
2006,09,22,01,23,8.70
2006,09,22,01,24,8.70
2006,09,22,01,25,8.70
2006,09,22,01,26,8.70
2006,09,22,01,27,8.70
2006,09,22,01,28,8.70
2006,09,22,01,29,8.60
2006,09,22,01,30,8.60
2006,09,22,01,31,8.70
2006,09,22,01,32,8.70
2006,09,22,01,33,8.70
2006,09,22,01,34,8.70
2006,09,22,01,35,8.70
2006,09,22,01,36,8.70
2006,09,22,01,37,8.70
2006,09,22,01,38,8.70
2006,09,22,01,39,8.70
2006,09,22,01,40,8.70
2006,09,22,01,41,8.70
2006,09,22,01,42,8.60
2006,09,22,01,43,8.60
2006,09,22,01,44,8.60
2006,09,22,01,45,8.60
2006,09,22,01,46,8.60
2006,09,22,01,47,8.50
2006,09,22,01,48,8.50
2006,09,22,01,49,8.50
2006,09,22,01,50,8.50
2006,09,22,01,51,8.50
2006,09,22,01,52,8.50
2006,09,22,01,53,8.50
2006,09,22,01,54,8.50
2006,09,22,01,55,8.50
2006,09,22,01,56,8.50
2006,09,22,01,57,8.50
2006,09,22,01,58,8.50
2006,09,22,01,59,8.50
2006,09,22,02,00,8.50
2006,09,22,02,01,8.50
2006,09,22,02,02,8.50
2006,09,22,02,03,8.50
2006,09,22,02,04,8.50
2006,09,22,02,05,8.60
2006,09,22,02,06,8.60
2006,09,22,02,07,8.60
2006,09,22,02,08,8.60
2006,09,22,02,09,8.60
2006,09,22,02,10,8.50
2006,09,22,02,11,8.50
2006,09,22,02,12,8.50
2006,09,22,02,13,8.50
2006,09,22,02,14,8.50
2006,09,22,02,15,8.50
2006,09,22,02,16,8.40
2006,09,22,02,17,8.40
2006,09,22,02,18,8.40
2006,09,22,02,19,8.40
2006,09,22,02,20,8.40
2006,09,22,02,21,8.40
2006,09,22,02,22,8.40
2006,09,22,02,23,8.40
2006,09,22,02,24,8.40
2006,09,22,02,25,8.40
2006,09,22,02,26,8.40
2006,09,22,02,27,8.30
2006,09,22,02,28,8.30
2006,09,22,02,29,8.30
2006,09,22,02,30,8.30
2006,09,22,02,31,8.30
2006,09,22,02,32,8.30
2006,09,22,02,33,8.30
2006,09,22,02,34,8.30
2006,09,22,02,35,8.30
2006,09,22,02,36,8.30
2006,09,22,02,37,8.40
2006,09,22,02,38,8.40
2006,09,22,02,39,8.30
2006,09,22,02,40,8.30
2006,09,22,02,41,8.30
2006,09,22,02,42,8.30
2006,09,22,02,43,8.30
2006,09,22,02,44,8.30
2006,09,22,02,45,8.30
2006,09,22,02,46,8.30
2006,09,22,02,47,8.30
2006,09,22,02,48,8.30
2006,09,22,02,49,8.30
2006,09,22,02,50,8.30
2006,09,22,02,51,8.30
2006,09,22,02,52,8.30
2006,09,22,02,53,8.30
2006,09,22,02,54,8.30
2006,09,22,02,55,8.30
2006,09,22,02,56,8.30
2006,09,22,02,57,8.20
2006,09,22,02,58,8.20
2006,09,22,02,59,8.20
2006,09,22,03,00,8.20
2006,09,22,03,01,8.20
2006,09,22,03,02,8.20
2006,09,22,03,03,8.20
2006,09,22,03,04,8.20
2006,09,22,03,05,8.20
2006,09,22,03,06,8.20
2006,09,22,03,07,8.20
2006,09,22,03,08,8.20
2006,09,22,03,09,8.20
2006,09,22,03,10,8.20
2006,09,22,03,11,8.20
2006,09,22,03,12,8.20
2006,09,22,03,13,8.20
2006,09,22,03,14,8.20
2006,09,22,03,15,8.20
2006,09,22,03,16,8.20
2006,09,22,03,17,8.20
2006,09,22,03,18,8.10
2006,09,22,03,19,8.10
2006,09,22,03,20,8.10
2006,09,22,03,21,8.10
2006,09,22,03,22,8.10
2006,09,22,03,23,8.10
2006,09,22,03,24,8.20
2006,09,22,03,25,8.20
2006,09,22,03,26,8.20
2006,09,22,03,27,8.20
2006,09,22,03,28,8.20
2006,09,22,03,29,8.20
2006,09,22,03,30,8.20
2006,09,22,03,31,8.20
2006,09,22,03,32,8.20
2006,09,22,03,33,8.20
2006,09,22,03,34,8.20
2006,09,22,03,35,8.20
2006,09,22,03,36,8.20
2006,09,22,03,37,8.20
2006,09,22,03,38,8.10
2006,09,22,03,39,8.10
2006,09,22,03,40,8.10
2006,09,22,03,41,8.10
2006,09,22,03,42,8.10
2006,09,22,03,43,8.10
2006,09,22,03,44,8.20
2006,09,22,03,45,8.20
2006,09,22,03,46,8.20
2006,09,22,03,47,8.20
2006,09,22,03,48,8.20
2006,09,22,03,49,8.20
2006,09,22,03,50,8.10
2006,09,22,03,51,8.10
2006,09,22,03,52,8.10
2006,09,22,03,53,8.10
2006,09,22,03,54,8.10
2006,09,22,03,55,8.10
2006,09,22,03,56,8.10
2006,09,22,03,57,8.10
2006,09,22,03,58,8.10
2006,09,22,03,59,8.20
2006,09,22,04,00,8.20
2006,09,22,04,01,8.20
2006,09,22,04,02,8.20
2006,09,22,04,03,8.20
2006,09,22,04,04,8.20
2006,09,22,04,05,8.20
2006,09,22,04,06,8.30
2006,09,22,04,07,8.30
2006,09,22,04,08,8.40
2006,09,22,04,09,8.40
2006,09,22,04,10,8.40
2006,09,22,04,11,8.40
2006,09,22,04,12,8.50
2006,09,22,04,13,8.50
2006,09,22,04,14,8.50
2006,09,22,04,15,8.60
2006,09,22,04,16,8.60
2006,09,22,04,17,8.70
2006,09,22,04,18,8.70
2006,09,22,04,19,8.70
2006,09,22,04,20,8.70
2006,09,22,04,21,8.70
2006,09,22,04,22,8.80
2006,09,22,04,23,8.80
2006,09,22,04,24,8.80
2006,09,22,04,25,8.80
2006,09,22,04,26,8.80
2006,09,22,04,27,8.80
2006,09,22,04,28,8.80
2006,09,22,04,29,8.90
2006,09,22,04,30,8.90
2006,09,22,04,31,8.90
2006,09,22,04,32,8.90
2006,09,22,04,33,8.90
2006,09,22,04,34,8.90
2006,09,22,04,35,8.90
2006,09,22,04,36,9.00
2006,09,22,04,37,9.00
2006,09,22,04,38,9.00
2006,09,22,04,39,9.00
2006,09,22,04,40,9.00
2006,09,22,04,41,9.00
2006,09,22,04,42,9.10
2006,09,22,04,43,9.10
2006,09,22,04,44,9.10
2006,09,22,04,45,9.10
2006,09,22,04,46,9.10
2006,09,22,04,47,9.20
2006,09,22,04,48,9.20
2006,09,22,04,49,9.20
2006,09,22,04,50,9.20
2006,09,22,04,51,9.20
2006,09,22,04,52,9.20
2006,09,22,04,53,9.20
2006,09,22,04,54,9.30
2006,09,22,04,55,9.30
2006,09,22,04,56,9.40
2006,09,22,04,57,9.40
2006,09,22,04,58,9.40
2006,09,22,04,59,9.40
2006,09,22,05,00,9.30
2006,09,22,05,01,9.30
2006,09,22,05,02,9.30
2006,09,22,05,03,9.30
2006,09,22,05,04,9.30
2006,09,22,05,05,9.20
2006,09,22,05,06,9.20
2006,09,22,05,07,9.20
2006,09,22,05,08,9.20
2006,09,22,05,09,9.10
2006,09,22,05,10,9.10
2006,09,22,05,11,9.10
2006,09,22,05,12,9.00
2006,09,22,05,13,9.00
2006,09,22,05,14,9.00
2006,09,22,05,15,9.00
2006,09,22,05,16,9.00
2006,09,22,05,17,9.00
2006,09,22,05,18,9.10
2006,09,22,05,19,9.10
2006,09,22,05,20,9.10
2006,09,22,05,21,9.10
2006,09,22,05,22,9.20
2006,09,22,05,23,9.20
2006,09,22,05,24,9.20
2006,09,22,05,25,9.20
2006,09,22,05,26,9.30
2006,09,22,05,27,9.40
2006,09,22,05,28,9.40
2006,09,22,05,29,9.50
2006,09,22,05,30,9.50
2006,09,22,05,31,9.60
2006,09,22,05,32,9.60
2006,09,22,05,33,9.70
2006,09,22,05,34,9.70
2006,09,22,05,35,9.70
2006,09,22,05,36,9.80
2006,09,22,05,37,9.80
2006,09,22,05,38,9.80
2006,09,22,05,39,9.80
2006,09,22,05,40,9.90
2006,09,22,05,41,9.90
2006,09,22,05,42,9.90
2006,09,22,05,43,9.90
2006,09,22,05,44,9.90
2006,09,22,05,45,9.90
2006,09,22,05,46,9.90
2006,09,22,05,47,9.90
2006,09,22,05,48,9.90
2006,09,22,05,49,9.90
2006,09,22,05,50,9.90
2006,09,22,05,51,9.90
2006,09,22,05,52,9.90
2006,09,22,05,53,9.90
2006,09,22,05,54,9.90
2006,09,22,05,55,9.90
2006,09,22,05,56,9.90
2006,09,22,05,57,9.90
2006,09,22,05,58,9.90
2006,09,22,05,59,9.90
2006,09,22,06,00,9.90
2006,09,22,06,01,9.90
2006,09,22,06,02,9.90
2006,09,22,06,03,9.90
2006,09,22,06,04,9.90
2006,09,22,06,05,9.90
2006,09,22,06,06,9.90
2006,09,22,06,07,9.80
2006,09,22,06,08,9.80
2006,09,22,06,09,9.80
2006,09,22,06,10,9.70
2006,09,22,06,11,9.70
2006,09,22,06,12,9.70
2006,09,22,06,13,9.70
2006,09,22,06,14,9.60
2006,09,22,06,15,9.60
2006,09,22,06,16,9.60
2006,09,22,06,17,9.50
2006,09,22,06,18,9.50
2006,09,22,06,19,9.40
2006,09,22,06,20,9.40
2006,09,22,06,21,9.40
2006,09,22,06,22,9.50
2006,09,22,06,23,9.50
2006,09,22,06,24,9.60
2006,09,22,06,25,9.60
2006,09,22,06,26,9.70
2006,09,22,06,27,9.70
2006,09,22,06,28,9.70
2006,09,22,06,29,9.70
2006,09,22,06,30,9.60
2006,09,22,06,31,9.50
2006,09,22,06,32,9.50
2006,09,22,06,33,9.50
2006,09,22,06,34,9.50
2006,09,22,06,35,9.50
2006,09,22,06,36,9.40
2006,09,22,06,37,9.40
2006,09,22,06,38,9.40
2006,09,22,06,39,9.30
2006,09,22,06,40,9.30
2006,09,22,06,41,9.20
2006,09,22,06,42,9.20
2006,09,22,06,43,9.20
2006,09,22,06,44,9.20
2006,09,22,06,45,9.10
2006,09,22,06,46,9.10
2006,09,22,06,47,9.10
2006,09,22,06,48,9.00
2006,09,22,06,49,9.00
2006,09,22,06,50,9.00
2006,09,22,06,51,8.90
2006,09,22,06,52,8.90
2006,09,22,06,53,8.80
2006,09,22,06,54,8.70
2006,09,22,06,55,8.70
2006,09,22,06,56,8.70
2006,09,22,06,57,8.60
2006,09,22,06,58,8.60
2006,09,22,06,59,8.50
2006,09,22,07,00,8.50
2006,09,22,07,01,8.40
2006,09,22,07,02,8.40
2006,09,22,07,03,8.30
2006,09,22,07,04,8.30
2006,09,22,07,05,8.20
2006,09,22,07,06,8.20
2006,09,22,07,07,8.20
2006,09,22,07,08,8.20
2006,09,22,07,09,8.20
2006,09,22,07,10,8.20
2006,09,22,07,11,8.20
2006,09,22,07,12,8.20
2006,09,22,07,13,8.20
2006,09,22,07,14,8.20
2006,09,22,07,15,8.20
2006,09,22,07,16,8.20
2006,09,22,07,17,8.20
2006,09,22,07,18,8.20
2006,09,22,07,19,8.20
2006,09,22,07,20,8.20
2006,09,22,07,21,8.20
2006,09,22,07,22,8.20
2006,09,22,07,23,8.20
2006,09,22,07,24,8.20
2006,09,22,07,25,8.20
2006,09,22,07,26,8.20
2006,09,22,07,27,8.20
2006,09,22,07,28,8.20
2006,09,22,07,29,8.20
2006,09,22,07,30,8.20
2006,09,22,07,31,8.20
2006,09,22,07,32,8.20
2006,09,22,07,33,8.20
2006,09,22,07,34,8.20
2006,09,22,07,35,8.20
2006,09,22,07,36,8.20
2006,09,22,07,37,8.20
2006,09,22,07,38,8.30
2006,09,22,07,39,8.40
2006,09,22,07,40,8.40
2006,09,22,07,41,8.50
2006,09,22,07,42,8.50
2006,09,22,07,43,8.60
2006,09,22,07,44,8.60
2006,09,22,07,45,8.70
2006,09,22,07,46,8.70
2006,09,22,07,47,8.70
2006,09,22,07,48,8.80
2006,09,22,07,49,8.90
2006,09,22,07,50,8.90
2006,09,22,07,51,8.90
2006,09,22,07,52,9.00
2006,09,22,07,53,9.00
2006,09,22,07,54,9.00
2006,09,22,07,55,9.00
2006,09,22,07,56,9.00
2006,09,22,07,57,9.00
2006,09,22,07,58,9.00
2006,09,22,07,59,9.10
2006,09,22,08,00,9.10
2006,09,22,08,01,9.10
2006,09,22,08,02,9.10
2006,09,22,08,03,9.20
2006,09,22,08,04,9.20
2006,09,22,08,05,9.20
2006,09,22,08,06,9.20
2006,09,22,08,07,9.20
2006,09,22,08,08,9.30
2006,09,22,08,09,9.30
2006,09,22,08,10,9.30
2006,09,22,08,11,9.40
2006,09,22,08,12,9.40
2006,09,22,08,13,9.40
2006,09,22,08,14,9.50
2006,09,22,08,15,9.50
2006,09,22,08,16,9.60
2006,09,22,08,17,9.60
2006,09,22,08,18,9.60
2006,09,22,08,19,9.70
2006,09,22,08,20,9.70
2006,09,22,08,21,9.70
2006,09,22,08,22,9.80
2006,09,22,08,23,9.90
2006,09,22,08,24,10.00
2006,09,22,08,25,10.10
2006,09,22,08,26,10.20
2006,09,22,08,27,10.30
2006,09,22,08,28,10.40
2006,09,22,08,29,10.50
2006,09,22,08,30,10.70
2006,09,22,08,31,10.80
2006,09,22,08,32,10.90
2006,09,22,08,33,11.00
2006,09,22,08,34,11.10
2006,09,22,08,35,11.10
2006,09,22,08,36,11.20
2006,09,22,08,37,11.20
2006,09,22,08,38,11.30
2006,09,22,08,39,11.30
2006,09,22,08,40,11.30
2006,09,22,08,41,11.40
2006,09,22,08,42,11.40
2006,09,22,08,43,11.40
2006,09,22,08,44,11.40
2006,09,22,08,45,11.50
2006,09,22,08,46,11.60
2006,09,22,08,47,11.60
2006,09,22,08,48,11.60
2006,09,22,08,49,11.60
2006,09,22,08,50,11.70
2006,09,22,08,51,11.70
2006,09,22,08,52,11.70
2006,09,22,08,53,11.80
2006,09,22,08,54,11.80
2006,09,22,08,55,11.80
2006,09,22,08,56,11.90
2006,09,22,08,57,11.90
2006,09,22,08,58,12.00
2006,09,22,08,59,12.00
2006,09,22,09,00,12.10
2006,09,22,09,01,12.20
2006,09,22,09,02,12.30
2006,09,22,09,03,12.30
2006,09,22,09,04,12.40
2006,09,22,09,05,12.60
2006,09,22,09,06,12.70
2006,09,22,09,07,12.70
2006,09,22,09,08,12.70
2006,09,22,09,09,12.80
2006,09,22,09,10,12.90
2006,09,22,09,11,13.00
2006,09,22,09,12,13.10
2006,09,22,09,13,13.10
2006,09,22,09,14,13.20
2006,09,22,09,15,13.20
2006,09,22,09,16,13.30
2006,09,22,09,17,13.30
2006,09,22,09,18,13.20
2006,09,22,09,19,13.10
2006,09,22,09,20,13.00
2006,09,22,09,21,13.00
2006,09,22,09,22,13.00
2006,09,22,09,23,13.00
2006,09,22,09,24,13.00
2006,09,22,09,25,13.10
2006,09,22,09,26,13.20
2006,09,22,09,27,13.30
2006,09,22,09,28,13.30
2006,09,22,09,29,13.30
2006,09,22,09,30,13.40
2006,09,22,09,31,13.50
2006,09,22,09,32,13.50
2006,09,22,09,33,13.70
2006,09,22,09,34,13.70
2006,09,22,09,35,13.90
2006,09,22,09,36,14.00
2006,09,22,09,37,14.00
2006,09,22,09,38,14.00
2006,09,22,09,39,14.10
2006,09,22,09,40,14.10
2006,09,22,09,41,14.10
2006,09,22,09,42,14.10
2006,09,22,09,43,14.20
2006,09,22,09,44,14.20
2006,09,22,09,45,14.20
2006,09,22,09,46,14.20
2006,09,22,09,47,14.20
2006,09,22,09,48,14.20
2006,09,22,09,49,14.20
2006,09,22,09,50,14.20
2006,09,22,09,51,14.20
2006,09,22,09,52,14.20
2006,09,22,09,53,14.20
2006,09,22,09,54,14.20
2006,09,22,09,55,14.20
2006,09,22,09,56,14.20
2006,09,22,09,57,14.20
2006,09,22,09,58,14.30
2006,09,22,09,59,14.30
2006,09,22,10,00,14.30
2006,09,22,10,01,14.30
2006,09,22,10,02,14.30
2006,09,22,10,03,14.30
2006,09,22,10,04,14.30
2006,09,22,10,05,14.40
2006,09,22,10,06,14.40
2006,09,22,10,07,14.40
2006,09,22,10,08,14.40
2006,09,22,10,09,14.40
2006,09,22,10,10,14.40
2006,09,22,10,11,14.40
2006,09,22,10,12,14.30
2006,09,22,10,13,14.30
2006,09,22,10,14,14.40
2006,09,22,10,15,14.40
2006,09,22,10,16,14.50
2006,09,22,10,17,14.60
2006,09,22,10,18,14.80
2006,09,22,10,19,14.80
2006,09,22,10,20,14.80
2006,09,22,10,21,14.80
2006,09,22,10,22,14.80
2006,09,22,10,23,14.80
2006,09,22,10,24,14.80
2006,09,22,10,25,14.80
2006,09,22,10,26,14.80
2006,09,22,10,27,14.80
2006,09,22,10,28,14.80
2006,09,22,10,29,14.80
2006,09,22,10,30,14.70
2006,09,22,10,31,14.70
2006,09,22,10,32,14.70
2006,09,22,10,33,14.70
2006,09,22,10,34,14.70
2006,09,22,10,35,14.80
2006,09,22,10,36,14.80
2006,09,22,10,37,14.80
2006,09,22,10,38,14.80
2006,09,22,10,39,14.90
2006,09,22,10,40,14.90
2006,09,22,10,41,14.90
2006,09,22,10,42,14.90
2006,09,22,10,43,15.00
2006,09,22,10,44,15.00
2006,09,22,10,45,15.00
2006,09,22,10,46,15.00
2006,09,22,10,47,15.00
2006,09,22,10,48,14.90
2006,09,22,10,49,14.80
2006,09,22,10,50,14.80
2006,09,22,10,51,14.80
2006,09,22,10,52,14.80
2006,09,22,10,53,14.80
2006,09,22,10,54,14.80
2006,09,22,10,55,14.80
2006,09,22,10,56,14.80
2006,09,22,10,57,14.80
2006,09,22,10,58,14.90
2006,09,22,10,59,14.90
2006,09,22,11,00,14.90
2006,09,22,11,01,14.80
2006,09,22,11,02,14.80
2006,09,22,11,03,14.80
2006,09,22,11,04,14.90
2006,09,22,11,05,14.90
2006,09,22,11,06,15.00
2006,09,22,11,07,15.00
2006,09,22,11,08,15.00
2006,09,22,11,09,15.00
2006,09,22,11,10,15.00
2006,09,22,11,11,15.00
2006,09,22,11,12,15.00
2006,09,22,11,13,15.00
2006,09,22,11,14,15.00
2006,09,22,11,15,15.00
2006,09,22,11,16,15.10
2006,09,22,11,17,15.10
2006,09,22,11,18,15.10
2006,09,22,11,19,15.10
2006,09,22,11,20,15.10
2006,09,22,11,21,15.10
2006,09,22,11,22,15.10
2006,09,22,11,23,15.20
2006,09,22,11,24,15.20
2006,09,22,11,25,15.30
2006,09,22,11,26,15.30
2006,09,22,11,27,15.50
2006,09,22,11,28,15.60
2006,09,22,11,29,15.60
2006,09,22,11,30,15.70
2006,09,22,11,31,15.80
2006,09,22,11,32,15.80
2006,09,22,11,33,15.90
2006,09,22,11,34,15.90
2006,09,22,11,35,15.80
2006,09,22,11,36,15.70
2006,09,22,11,37,15.60
2006,09,22,11,38,15.50
2006,09,22,11,39,15.50
2006,09,22,11,40,15.40
2006,09,22,11,41,15.40
2006,09,22,11,42,15.30
2006,09,22,11,43,15.30
2006,09,22,11,44,15.30
2006,09,22,11,45,15.30
2006,09,22,11,46,15.40
2006,09,22,11,47,15.40
2006,09,22,11,48,15.50
2006,09,22,11,49,15.60
2006,09,22,11,50,15.60
2006,09,22,11,51,15.70
2006,09,22,11,52,15.80
2006,09,22,11,53,15.80
2006,09,22,11,54,15.70
2006,09,22,11,55,15.70
2006,09,22,11,56,15.70
2006,09,22,11,57,15.60
2006,09,22,11,58,15.60
2006,09,22,11,59,15.70
2006,09,22,12,00,15.70
2006,09,22,12,01,15.80
2006,09,22,12,02,15.80
2006,09,22,12,03,15.70
2006,09,22,12,04,15.70
2006,09,22,12,05,15.80
2006,09,22,12,06,15.80
2006,09,22,12,07,15.90
2006,09,22,12,08,15.90
2006,09,22,12,09,15.80
2006,09,22,12,10,15.80
2006,09,22,12,11,15.80
2006,09,22,12,12,15.80
2006,09,22,12,13,15.90
2006,09,22,12,14,15.90
2006,09,22,12,15,15.90
2006,09,22,12,16,15.80
2006,09,22,12,17,15.90
2006,09,22,12,18,16.00
2006,09,22,12,19,16.10
2006,09,22,12,20,16.20
2006,09,22,12,21,16.20
2006,09,22,12,22,16.20
2006,09,22,12,23,16.30
2006,09,22,12,24,16.40
2006,09,22,12,25,16.40
2006,09,22,12,26,16.40
2006,09,22,12,27,16.50
2006,09,22,12,28,16.60
2006,09,22,12,29,16.60
2006,09,22,12,30,16.60
2006,09,22,12,31,16.70
2006,09,22,12,32,16.70
2006,09,22,12,33,16.70
2006,09,22,12,34,16.70
2006,09,22,12,35,16.70
2006,09,22,12,36,16.80
2006,09,22,12,37,16.80
2006,09,22,12,38,16.90
2006,09,22,12,39,17.00
2006,09,22,12,40,17.00
2006,09,22,12,41,17.10
2006,09,22,12,42,17.10
2006,09,22,12,43,17.10
2006,09,22,12,44,17.00
2006,09,22,12,45,16.90
2006,09,22,12,46,16.60
2006,09,22,12,47,16.30
2006,09,22,12,48,16.20
2006,09,22,12,49,16.00
2006,09,22,12,50,15.80
2006,09,22,12,51,15.60
2006,09,22,12,52,15.50
2006,09,22,12,53,15.50
2006,09,22,12,54,15.60
2006,09,22,12,55,15.70
2006,09,22,12,56,15.80
2006,09,22,12,57,15.80
2006,09,22,12,58,15.80
2006,09,22,12,59,15.90
2006,09,22,13,00,15.90
2006,09,22,13,01,15.90
2006,09,22,13,02,15.90
2006,09,22,13,03,15.90
2006,09,22,13,04,16.00
2006,09,22,13,05,16.10
2006,09,22,13,06,16.00
2006,09,22,13,07,15.90
2006,09,22,13,08,15.80
2006,09,22,13,09,15.70
2006,09,22,13,10,15.70
2006,09,22,13,11,15.70
2006,09,22,13,12,15.80
2006,09,22,13,13,15.70
2006,09,22,13,14,15.60
2006,09,22,13,15,15.50
2006,09,22,13,16,15.40
2006,09,22,13,17,15.30
2006,09,22,13,18,15.20
2006,09,22,13,19,15.20
2006,09,22,13,20,15.20
2006,09,22,13,21,15.20
2006,09,22,13,22,15.20
2006,09,22,13,23,15.20
2006,09,22,13,24,15.20
2006,09,22,13,25,15.30
2006,09,22,13,26,15.40
2006,09,22,13,27,15.40
2006,09,22,13,28,15.30
2006,09,22,13,29,15.40
2006,09,22,13,30,15.50
2006,09,22,13,31,15.50
2006,09,22,13,32,15.60
2006,09,22,13,33,15.60
2006,09,22,13,34,15.70
2006,09,22,13,35,15.80
2006,09,22,13,36,15.70
2006,09,22,13,37,15.60
2006,09,22,13,38,15.50
2006,09,22,13,39,15.40
2006,09,22,13,40,15.30
2006,09,22,13,41,15.20
2006,09,22,13,42,15.10
2006,09,22,13,43,15.00
2006,09,22,13,44,14.80
2006,09,22,13,45,14.70
2006,09,22,13,46,14.60
2006,09,22,13,47,14.70
2006,09,22,13,48,14.70
2006,09,22,13,49,14.80
2006,09,22,13,50,14.90
2006,09,22,13,51,14.90
2006,09,22,13,52,14.80
2006,09,22,13,53,14.80
2006,09,22,13,54,14.60
2006,09,22,13,55,14.50
2006,09,22,13,56,14.50
2006,09,22,13,57,14.50
2006,09,22,13,58,14.60
2006,09,22,13,59,14.70
2006,09,22,14,00,14.80
2006,09,22,14,01,14.90
2006,09,22,14,02,14.90
2006,09,22,14,03,14.80
2006,09,22,14,04,14.80
2006,09,22,14,05,14.80
2006,09,22,14,06,14.80
2006,09,22,14,07,14.80
2006,09,22,14,08,14.80
2006,09,22,14,09,14.80
2006,09,22,14,10,14.80
2006,09,22,14,11,14.70
2006,09,22,14,12,14.70
2006,09,22,14,13,14.70
2006,09,22,14,14,14.70
2006,09,22,14,15,14.80
2006,09,22,14,16,14.80
2006,09,22,14,17,14.80
2006,09,22,14,18,14.80
2006,09,22,14,19,14.80
2006,09,22,14,20,14.90
2006,09,22,14,21,14.90
2006,09,22,14,22,14.90
2006,09,22,14,23,14.80
2006,09,22,14,24,14.80
2006,09,22,14,25,14.80
2006,09,22,14,26,14.80
2006,09,22,14,27,14.80
2006,09,22,14,28,14.90
2006,09,22,14,29,15.00
2006,09,22,14,30,15.00
2006,09,22,14,31,14.90
2006,09,22,14,32,14.80
2006,09,22,14,33,14.80
2006,09,22,14,34,14.80
2006,09,22,14,35,14.70
2006,09,22,14,36,14.60
2006,09,22,14,37,14.50
2006,09,22,14,38,14.40
2006,09,22,14,39,14.40
2006,09,22,14,40,14.50
2006,09,22,14,41,14.50
2006,09,22,14,42,14.60
2006,09,22,14,43,14.70
2006,09,22,14,44,14.80
2006,09,22,14,45,14.80
2006,09,22,14,46,14.80
2006,09,22,14,47,14.80
2006,09,22,14,48,14.80
2006,09,22,14,49,14.80
2006,09,22,14,50,14.70
2006,09,22,14,51,14.70
2006,09,22,14,52,14.60
2006,09,22,14,53,14.50
2006,09,22,14,54,14.50
2006,09,22,14,55,14.50
2006,09,22,14,56,14.60
2006,09,22,14,57,14.60
2006,09,22,14,58,14.70
2006,09,22,14,59,14.80
2006,09,22,15,00,15.00
2006,09,22,15,01,15.10
2006,09,22,15,02,15.10
2006,09,22,15,03,15.10
2006,09,22,15,04,15.10
2006,09,22,15,05,15.20
2006,09,22,15,06,15.20
2006,09,22,15,07,15.10
2006,09,22,15,08,15.10
2006,09,22,15,09,15.10
2006,09,22,15,10,15.10
2006,09,22,15,11,15.10
2006,09,22,15,12,15.10
2006,09,22,15,13,15.10
2006,09,22,15,14,15.00
2006,09,22,15,15,15.00
2006,09,22,15,16,15.00
2006,09,22,15,17,15.00
2006,09,22,15,18,14.90
2006,09,22,15,19,14.80
2006,09,22,15,20,14.70
2006,09,22,15,21,14.70
2006,09,22,15,22,14.70
2006,09,22,15,23,14.80
2006,09,22,15,24,14.80
2006,09,22,15,25,14.80
2006,09,22,15,26,14.80
2006,09,22,15,27,14.60
2006,09,22,15,28,14.60
2006,09,22,15,29,14.50
2006,09,22,15,30,14.50
2006,09,22,15,31,14.40
2006,09,22,15,32,14.40
2006,09,22,15,33,14.40
2006,09,22,15,34,14.30
2006,09,22,15,35,14.20
2006,09,22,15,36,14.20
2006,09,22,15,37,14.20
2006,09,22,15,38,14.30
2006,09,22,15,39,14.50
2006,09,22,15,40,14.60
2006,09,22,15,41,14.70
2006,09,22,15,42,14.70
2006,09,22,15,43,14.70
2006,09,22,15,44,14.70
2006,09,22,15,45,14.70
2006,09,22,15,46,14.70
2006,09,22,15,47,14.80
2006,09,22,15,48,15.00
2006,09,22,15,49,15.00
2006,09,22,15,50,15.00
2006,09,22,15,51,15.00
2006,09,22,15,52,15.00
2006,09,22,15,53,15.00
2006,09,22,15,54,14.90
2006,09,22,15,55,14.80
2006,09,22,15,56,14.80
2006,09,22,15,57,14.80
2006,09,22,15,58,14.80
2006,09,22,15,59,14.80
2006,09,22,16,00,14.80
2006,09,22,16,01,14.80
2006,09,22,16,02,14.80
2006,09,22,16,03,14.80
2006,09,22,16,04,14.80
2006,09,22,16,05,14.80
2006,09,22,16,06,14.90
2006,09,22,16,07,15.00
2006,09,22,16,08,15.10
2006,09,22,16,09,15.30
2006,09,22,16,10,15.40
2006,09,22,16,11,15.50
2006,09,22,16,12,15.60
2006,09,22,16,13,15.70
2006,09,22,16,14,15.80
2006,09,22,16,15,15.80
2006,09,22,16,16,15.80
2006,09,22,16,17,15.80
2006,09,22,16,18,15.90
2006,09,22,16,19,15.90
2006,09,22,16,20,15.80
2006,09,22,16,21,15.80
2006,09,22,16,22,15.80
2006,09,22,16,23,15.80
2006,09,22,16,24,15.80
2006,09,22,16,25,15.90
2006,09,22,16,26,16.00
2006,09,22,16,27,16.10
2006,09,22,16,28,16.00
2006,09,22,16,29,15.90
2006,09,22,16,30,15.90
2006,09,22,16,31,15.90
2006,09,22,16,32,15.80
2006,09,22,16,33,15.80
2006,09,22,16,34,15.80
2006,09,22,16,35,15.80
2006,09,22,16,36,15.90
2006,09,22,16,37,15.90
2006,09,22,16,38,16.00
2006,09,22,16,39,15.90
2006,09,22,16,40,15.90
2006,09,22,16,41,15.90
2006,09,22,16,42,15.80
2006,09,22,16,43,15.80
2006,09,22,16,44,15.70
2006,09,22,16,45,15.60
2006,09,22,16,46,15.50
2006,09,22,16,47,15.40
2006,09,22,16,48,15.30
2006,09,22,16,49,15.20
2006,09,22,16,50,15.10
2006,09,22,16,51,15.20
2006,09,22,16,52,15.30
2006,09,22,16,53,15.30
2006,09,22,16,54,15.40
2006,09,22,16,55,15.50
2006,09,22,16,56,15.50
2006,09,22,16,57,15.40
2006,09,22,16,58,15.40
2006,09,22,16,59,15.30
2006,09,22,17,00,15.30
2006,09,22,17,01,15.30
2006,09,22,17,02,15.20
2006,09,22,17,03,15.10
2006,09,22,17,04,15.10
2006,09,22,17,05,15.10
2006,09,22,17,06,15.20
2006,09,22,17,07,15.20
2006,09,22,17,08,15.20
2006,09,22,17,09,15.20
2006,09,22,17,10,15.30
2006,09,22,17,11,15.30
2006,09,22,17,12,15.30
2006,09,22,17,13,15.20
2006,09,22,17,14,15.10
2006,09,22,17,15,15.00
2006,09,22,17,16,15.00
2006,09,22,17,17,14.90
2006,09,22,17,18,14.90
2006,09,22,17,19,14.80
2006,09,22,17,20,14.80
2006,09,22,17,21,14.90
2006,09,22,17,22,14.90
2006,09,22,17,23,15.00
2006,09,22,17,24,15.00
2006,09,22,17,25,15.00
2006,09,22,17,26,14.90
2006,09,22,17,27,15.00
2006,09,22,17,28,15.00
2006,09,22,17,29,14.90
2006,09,22,17,30,14.90
2006,09,22,17,31,14.90
2006,09,22,17,32,14.80
2006,09,22,17,33,14.60
2006,09,22,17,34,14.60
2006,09,22,17,35,14.50
2006,09,22,17,36,14.50
2006,09,22,17,37,14.50
2006,09,22,17,38,14.40
2006,09,22,17,39,14.40
2006,09,22,17,40,14.40
2006,09,22,17,41,14.30